Location: Krakow
(50.0830°N, 19.9170°E)
Time: 12:48:18
(UTC+01:00)

Transit 4A - Visible Passes

Search period start: 15 March 2026 00:00
Search period end: 25 March 2026 00:00
Orbit: 863 x 978 km, 66.8° (Epoch: 14 March)

Date Brightness Start Highest point End Pass type
(mag) Time Alt. Az. Time Alt. Az. Time Alt. Az.
15 Mar 10.2 01:39:18 14° NW 01:41:49 17° N 01:45:52 10° NNE visible
15 Mar 10.1 03:25:59 10° NNW 03:30:36 21° NNE 03:35:17 10° ENE visible
15 Mar 8.9 05:12:19 10° NNW 05:18:27 50° NE 05:24:38 10° ESE visible
15 Mar 10.1 22:20:24 15° NE 22:20:24 15° NE 22:21:28 10° NE visible
16 Mar 9.8 00:03:50 25° N 00:03:50 25° N 00:07:44 10° NNE visible
16 Mar 10.3 01:47:15 10° NW 01:51:07 17° N 01:55:04 10° NE visible
16 Mar 10.0 03:34:49 10° NNW 03:39:47 24° NNE 03:44:50 10° ENE visible
16 Mar 8.5 05:21:03 10° NNW 05:27:20 65° NE 05:33:41 10° SE visible
16 Mar 9.8 22:28:16 21° NNE 22:28:16 21° NNE 22:30:13 10° NNE visible
17 Mar 9.9 00:11:41 23° NNW 00:11:42 23° NNW 00:16:32 10° NNE visible
17 Mar 10.3 01:56:29 10° NW 02:00:25 17° N 02:04:24 10° NE visible
17 Mar 9.8 03:43:35 10° NNW 03:48:55 28° NNE 03:54:20 10° E visible
17 Mar 9.5 22:35:56 28° NNE 22:35:56 28° NNE 22:38:58 10° NNE visible
18 Mar 10.0 00:19:20 18° NW 00:20:54 20° NNW 00:25:25 10° NNE visible
18 Mar 10.3 02:05:36 10° NNW 02:09:42 18° N 02:13:51 10° NE visible
18 Mar 9.6 03:52:20 10° NNW 03:58:00 34° NE 04:03:44 10° E visible
18 Mar 9.7 20:59:56 17° NE 20:59:56 17° NE 21:01:20 10° NE visible
18 Mar 9.3 22:43:18 33° N 22:43:18 33° N 22:47:42 10° NNE visible
19 Mar 10.2 00:26:40 12° NW 00:30:09 18° NNW 00:34:22 10° NNE visible
19 Mar 10.3 02:14:35 10° NNW 02:18:57 19° NNE 02:23:24 10° ENE visible
19 Mar 9.2 04:01:04 10° NNW 04:07:01 42° NE 04:13:03 10° ESE visible
19 Mar10.119:23:20ENE19:23:20ENE19:12:07SSEvisible
19 Mar 8.8 21:06:37 36° NE 21:06:37 36° NE 21:10:10 10° NE visible
19 Mar 9.5 22:49:53 29° NW 22:51:00 30° NNW 22:56:27 10° NNE visible
20 Mar 10.3 00:35:28 10° NW 00:39:26 17° N 00:43:27 10° NE visible
20 Mar 10.2 02:23:28 10° NNW 02:28:11 22° NNE 02:32:58 10° ENE visible
20 Mar 8.8 04:09:47 10° NNW 04:15:57 53° NE 04:22:13 10° ESE visible
20 Mar 8.7 19:22:21 10° SSE 19:27:01 24° ESE 19:31:48 10° NE visible
20 Mar 7.9 21:06:45 10° SW 21:12:44 75° NW 21:18:56 10° NE visible
20 Mar 9.8 22:55:08 10° W 23:00:07 26° NNW 23:05:13 10° NNE visible
21 Mar 10.4 00:44:49 10° NW 00:48:43 17° N 00:52:41 10° NE visible
21 Mar 10.0 02:32:17 10° NNW 02:37:22 25° NNE 02:42:31 10° E visible
21 Mar 8.4 04:18:31 10° NW 04:24:50 69° NE 04:31:13 10° SE visible
21 Mar 8.4 19:30:14 10° S 19:35:30 34° ESE 19:40:57 10° NE visible
21 Mar 8.4 21:15:41 10° SW 21:21:35 57° NW 21:27:42 10° NNE visible
21 Mar 10.0 23:04:37 10° WNW 23:09:16 22° NNW 23:14:03 10° NNE visible
22 Mar 10.4 00:54:02 10° NW 00:58:01 17° N 01:02:03 10° NE visible
22 Mar 9.8 02:41:03 10° NNW 02:46:29 29° NNE 02:51:59 10° E visible
22 Mar 8.0 04:27:16 10° NW 04:33:39 89° ENE 04:40:04 10° SE visible
22 Mar 8.0 19:38:24 10° S 19:44:04 48° ESE 19:49:57 10° NE visible
22 Mar 8.9 21:24:46 10° WSW 21:30:30 44° NW 21:36:27 10° NNE visible
22 Mar 10.2 23:14:08 10° WNW 23:18:29 20° NNW 23:22:57 10° NNE visible
23 Mar 10.4 01:03:07 10° NNW 01:07:18 18° N 01:11:32 10° NE visible
23 Mar 9.5 02:49:47 10° NNW 02:55:33 36° NE 03:01:23 10° ESE visible
23 Mar 8.0 04:36:05 10° NW 04:42:23 69° WSW 04:48:43 10° SSE visible
23 Mar 7.8 19:46:48 10° SSW 19:52:42 66° ESE 19:58:50 10° NE visible
23 Mar 9.3 21:33:59 10° WSW 21:39:29 35° NW 21:45:11 10° NNE visible
23 Mar 10.4 23:23:38 10° NW 23:27:45 18° N 23:31:56 10° NNE visible
24 Mar 10.3 01:12:04 10° NNW 01:16:33 20° NNE 01:21:05 10° ENE visible
24 Mar 9.1 02:58:31 10° NNW 03:04:33 44° NE 03:10:38 10° ESE visible
24 Mar 8.2 04:44:57 10° NW 04:51:03 51° WSW 04:57:12 10° S visible
24 Mar 7.8 19:55:26 10° SSW 20:01:25 88° SE 20:07:39 10° NE visible
24 Mar 9.7 21:43:19 10° W 21:48:33 29° NNW 21:53:56 10° NNE visible
24 Mar 10.4 23:33:04 10° NW 23:37:02 17° N 23:41:03 10° NE visible
